Location: Coed Ely
(51.5661°N, 3.4150°W)
Time: 20:11:03
(UTC+00:00)

CZ-2C R/B - Pass Details

Date: 28 January 2021
Orbit: 785 x 870 km, 98.2° (Epoch: 27 February)

Event Time Altitude Azimuth Distance (km) Brightness Sun altitude
Rises 18:29:52 0° 22° (NNE) 3,443 5.6 -14.5°
Enters shadow 18:30:22 - 24° (NNE) 3,265 5.4 -14.6°
Exits shadow 18:33:46 15° 43° (NE) 2,180 4.4 -15.1°
Maximum altitude 18:37:19 27° 91° (E) 1,616 3.6 -15.6°
Drops below altitude 10° 18:42:00 10° 148° (SSE) 2,513 4.9 -16.3°
Sets 18:44:46 0° 161° (SSE) 3,445 5.8 -16.8°
